sat.trackr.live / text

‹ back to catalog

UNKNOWN

NORAD 81792

UNKNOWN UNKNOWN UNKNOWN

§ Identity

Operator
Country
Launch date
Launch site
Launch vehicle
Mass (kg)
RCS (m²)

External: N2YO · Heavens-Above

§ Orbital elements

Epoch: 2026-05-24T02:35:27.638592Z

Period
109.80 min
Inclination
65.8103°
Eccentricity
0.0893272
Mean motion
13.11473640 rev/d
Perigee alt
539.0 km
Apogee alt
1,896.0 km
Semi-major
7,595.6 km
B*
-2.3494e-4
RAAN
90.7915°
Arg perigee
210.8414°
Mean anomaly
143.7116°
Rev number
10,132

§ Raw data

UNKNOWN1 81792U          26144.10795878 -.00000774  00000+0 -23494-3 0  99932 81792  65.8103  90.7915 0893272 210.8414 143.7116 13.11473640101324

JSON: /api/v1/satellites/81792 · /tle

For live sub-satellite position, see the globe view (requires WebGL).

§ Visibility from observer

Set your observer location to see the next 7 days of passes ≥ 10°. The values pass through the URL so the page stays shareable.

No JS? Fill the form by hand. The geolocation button needs JavaScript.